Weather in Kurchanskaya

Russia / Krasnodar Krai     45°13′34″N   37°33′18″E
temp.,
°C
wind,
m/s
gust,
m/s
humid.,
%
clouds,
%
prec.,
mm/h
press.,
hPa
HPBL,
m
13 june, sun
sun1300:00+17ssw468856 0.0 1013107
03:00+16ssw36907 0.0 1013106
06:00+17ssw36881 0.0 1012168
09:00+23sw55640 0.4 1012769
12:00+25sw555725 1.1 10121224
15:00+25sw65565 1.4 10121293
18:00+22sw55631 0.0 1012773
21:00+17ssw47911 0.0 1012143
14 june, mon
mon1400:00+16s35925 0.0 101290
03:00+15sse229041 0.0 101125
06:00+16ese2386100 0.0 101180
09:00+22ese456470 0.0 1011535
12:00+26e455453 0.0 10111343
15:00+26n5558100 0.3 1010785
18:00+24ne696875 0.0 1009367
21:00+21ne41272100 0.0 1009246
15 june, tue
tue1500:00+21ene51272100 0.0 1008286
03:00+18e6149198 2.1 1007393
06:00+18e41094100 1.6 1008395
09:00+23e577671 2.2 1008665
12:00+27sse78535 0.4 10071505
15:00+25ssw78530 0.4 10091066
18:00+22ssw67700 0.0 1009781
21:00+17ssw33880 0.0 100951
16 june, wed
wed1600:00+16sw239085 0.0 100847
03:00+18w478298 0.3 1009306
06:00+17w2587100 1.6 1009263
09:00+17nw349186 3.3 1010228
12:00+22nw126310 0.2 1010972
15:00+23wsw66574 0.4 10111342
18:00+21wsw45685 0.0 1011777
21:00+17sw23870 0.0 101248
17 june, thu
thu1700:00+16sw11890 0.0 101124
03:00+15se11920 0.0 101120
06:00+16ese2389100 0.0 101288
09:00+21e2266100 0.0 1012564
12:00+23wnw3260100 0.0 10121078
15:00+19nnw2378100 0.4 1014229
18:00+18e4492100 1.4 1014163
21:00+17se359383 1.6 101493